EW5788 Stony Creek CT US current weather conditions

sailwx.info

Wind from 053 at 2 knots gusting 8

Air temperature 2.2° C
Dewpoint 0.3° C

Last reported at 2020-Oct-30 21:08 UTC.
Time now 2020-Oct-30 21:37 UTC

Location: N 41°15' W 072°45'.
View on Google Maps.

See reports from other nearby stations

  
Tides and Currents Weather Stations Pressure Air Temp Water Temp Dewpoint Dewpoint Depression Visibility Wind Speed Wind Dir Waves Ship Positions
date/time (UTC)wind fromknots sea level pressurealtimeterstation pressurevisibilityair tempwater tempwave heightnotes
2020-Oct-30 21:08 053 2 gusting 8 2.2
2020-Oct-30 21:03 053 3 gusting 8 2.2
2020-Oct-30 20:58 053 3 gusting 8 2.2
2020-Oct-30 20:53 053 3 gusting 8 2.2
2020-Oct-30 20:48 053 3 gusting 8 2.2
2020-Oct-30 20:42 053 3 gusting 10 2.2
2020-Oct-30 20:37 053 1 gusting 10 2.8
2020-Oct-30 20:32 053 1 gusting 7 2.8
2020-Oct-30 20:27 053 2 gusting 7 2.8
2020-Oct-30 20:22 053 1 gusting 5 2.8
2020-Oct-30 20:17 053 1 gusting 5 2.8
2020-Oct-30 20:12 053 1 gusting 6 2.8
2020-Oct-30 20:07 053 1 gusting 6 2.2
2020-Oct-30 20:02 053 1 gusting 7 2.2
2020-Oct-30 19:57 053 1 gusting 7 2.2
2020-Oct-30 19:52 053 1 gusting 6 2.2
2020-Oct-30 19:47 053 0 gusting 5 2.2
2020-Oct-30 19:42 053 1 gusting 5 2.2
2020-Oct-30 19:37 053 1 gusting 6 2.2
2020-Oct-30 19:32 053 1 gusting 6 2.2
2020-Oct-30 19:27 053 1 gusting 4 2.2
2020-Oct-30 19:22 053 1 gusting 6 2.2
2020-Oct-30 19:17 053 1 gusting 6 2.2
2020-Oct-30 19:12 053 2 gusting 7 2.2
2020-Oct-30 19:07 053 3 gusting 8 2.2
2020-Oct-30 19:02 053 2 gusting 8 2.2
2020-Oct-30 18:57 053 1 gusting 7 2.2
2020-Oct-30 18:52 053 1 gusting 6 2.2
2020-Oct-30 18:47 053 1 gusting 6 2.2
2020-Oct-30 18:42 053 1 gusting 7 2.2
2020-Oct-30 18:37 053 2 gusting 7 2.2
2020-Oct-30 18:32 053 2 gusting 7 2.2
2020-Oct-30 18:27 053 2 gusting 6 2.2
2020-Oct-30 18:22 053 2 gusting 6 2.2
2020-Oct-30 18:17 053 1 gusting 5 2.2
2020-Oct-30 18:12 053 1 gusting 5 1.7
2020-Oct-30 18:07 053 1 gusting 4 1.7
2020-Oct-30 18:02 053 1 gusting 4 1.7
2020-Oct-30 17:57 053 1 gusting 4 1.7
2020-Oct-30 17:52 053 1 gusting 4 1.7
2020-Oct-30 17:47 053 1 gusting 4 1.7
2020-Oct-30 17:42 053 1 gusting 7 1.7
2020-Oct-30 17:37 053 1 gusting 7 1.7
2020-Oct-30 17:32 053 2 gusting 8 1.7
2020-Oct-30 17:27 053 3 gusting 8 1.7
2020-Oct-30 17:22 053 3 gusting 10 1.7
2020-Oct-30 17:17 053 2 gusting 10 1.7
2020-Oct-30 17:12 053 3 gusting 9 1.7
2020-Oct-30 17:07 053 2 gusting 9 1.7
2020-Oct-30 17:02 053 2 gusting 6 1.7
2020-Oct-30 16:57 053 2 gusting 8 1.7
2020-Oct-30 16:51 053 2 gusting 8 1.7
2020-Oct-30 16:46 053 1 gusting 7 1.7
2020-Oct-30 16:41 053 2 gusting 9 1.7
2020-Oct-30 16:37 053 2 gusting 9 1.7
2020-Oct-30 16:31 053 2 gusting 7 1.7
2020-Oct-30 16:26 053 2 gusting 9 1.7
2020-Oct-30 16:21 053 2 gusting 9 1.7
2020-Oct-30 16:17 053 1 gusting 7 1.7
2020-Oct-30 16:12 053 2 gusting 7 1.7
2020-Oct-30 16:06 053 3 gusting 10 1.7
2020-Oct-30 16:02 053 3 gusting 10 1.7
2020-Oct-30 15:56 053 1 gusting 10 1.7
2020-Oct-30 15:51 053 2 gusting 8 1.7
2020-Oct-30 15:47 053 3 gusting 9 1.7
2020-Oct-30 15:42 053 3 gusting 11 1.7
2020-Oct-30 15:36 053 3 gusting 11 1.7
2020-Oct-30 15:31 053 4 gusting 10 1.1
2020-Oct-30 15:26 053 4 gusting 9 1.1
2020-Oct-30 15:21 053 3 gusting 9 1.1
2020-Oct-30 15:16 053 3 gusting 10 1.7
2020-Oct-30 15:11 053 3 gusting 10 1.7
2020-Oct-30 15:07 053 3 gusting 8 1.7
2020-Oct-30 15:01 053 2 gusting 7 1.7
2020-Oct-30 14:56 053 2 gusting 8 1.7
2020-Oct-30 14:51 053 2 gusting 8 1.7
2020-Oct-30 14:46 053 2 gusting 8 1.7
2020-Oct-30 14:41 053 3 gusting 10 1.1
2020-Oct-30 14:36 053 2 gusting 10 1.1
2020-Oct-30 14:31 053 2 gusting 10 1.1
2020-Oct-30 14:26 053 2 gusting 10 1.1
2020-Oct-30 14:21 053 2 gusting 6 1.1
2020-Oct-30 14:16 053 2 gusting 5 0.6
2020-Oct-30 14:11 053 2 gusting 7 0.6
2020-Oct-30 14:06 053 2 gusting 8 0.6
2020-Oct-30 14:01 053 2 gusting 8 0.6
2020-Oct-30 13:56 053 1 gusting 5 0.6
2020-Oct-30 13:51 053 1 gusting 3 0.6
2020-Oct-30 13:46 053 1 gusting 4 1.1
2020-Oct-30 13:41 053 1 gusting 5 1.1
2020-Oct-30 13:36 053 2 gusting 6 1.1
2020-Oct-30 13:31 053 2 gusting 6 1.1
2020-Oct-30 13:26 053 2 gusting 6 1.1
2020-Oct-30 13:21 053 2 gusting 5 1.1
2020-Oct-30 13:16 053 2 gusting 8 1.1
2020-Oct-30 13:11 053 2 gusting 8 1.1
2020-Oct-30 13:06 053 2 gusting 7 1.7
2020-Oct-30 13:01 053 1 gusting 7 1.7
2020-Oct-30 12:56 053 2 gusting 6 1.7
2020-Oct-30 12:51 053 3 gusting 9 1.7
2020-Oct-30 12:46 053 3 gusting 9 1.7
2020-Oct-30 12:41 053 3 gusting 11 1.7
2020-Oct-30 12:36 053 3 gusting 13 1.7
2020-Oct-30 12:31 053 3 gusting 13 1.7
2020-Oct-30 12:26 053 3 gusting 13 1.7
2020-Oct-30 12:21 053 3 gusting 13 2.2
2020-Oct-30 12:16 053 2 gusting 7 2.2
2020-Oct-30 12:11 053 3 gusting 11 2.2
2020-Oct-30 12:06 053 4 gusting 13 2.2
2020-Oct-30 12:01 053 3 gusting 13 2.2
2020-Oct-30 11:56 053 3 gusting 11 2.8
2020-Oct-30 11:51 053 3 gusting 10 2.8
2020-Oct-30 11:46 053 3 gusting 10 2.8
2020-Oct-30 11:41 053 2 gusting 8 2.8
2020-Oct-30 11:36 053 2 gusting 8 3.3
2020-Oct-30 11:31 053 2 gusting 6 3.3
2020-Oct-30 11:26 053 2 gusting 8 3.3
2020-Oct-30 11:20 053 3 gusting 10 3.3
2020-Oct-30 11:16 053 2 gusting 10 3.3
2020-Oct-30 11:11 053 2 gusting 11 3.3
2020-Oct-30 11:05 053 3 gusting 11 3.9
2020-Oct-30 11:01 053 2 gusting 9 3.9
2020-Oct-30 10:56 053 2 gusting 8 3.9
2020-Oct-30 10:51 053 2 gusting 8 3.9
2020-Oct-30 10:46 053 2 gusting 8 3.9
2020-Oct-30 10:40 053 2 gusting 8 4.4
2020-Oct-30 10:35 053 1 gusting 6 4.4
2020-Oct-30 10:30 053 2 gusting 11 4.4
2020-Oct-30 10:25 053 2 gusting 11 4.4
2020-Oct-30 10:20 053 1 gusting 5 4.4
2020-Oct-30 10:15 053 0 gusting 4 4.4
2020-Oct-30 10:10 053 0 gusting 2 4.4
2020-Oct-30 10:05 053 1 gusting 6 4.4
2020-Oct-30 10:00 053 2 gusting 6 4.4
2020-Oct-30 09:55 053 1 gusting 6 5.0
2020-Oct-30 09:50 053 1 gusting 6 5.0
2020-Oct-30 09:45 053 2 gusting 8 5.0
2020-Oct-30 09:40 053 1 gusting 8 5.0
2020-Oct-30 09:35 053 1 gusting 6 5.0
2020-Oct-30 09:30 053 1 gusting 6 5.0
2020-Oct-30 09:25 053 0 gusting 5 5.0
2020-Oct-30 09:20 053 1 gusting 9 5.6
2020-Oct-30 09:15 053 2 gusting 9 5.6
2020-Oct-30 09:10 053 2 gusting 9 5.6
2020-Oct-30 09:05 053 2 gusting 9 5.6
2020-Oct-30 09:00 053 2 gusting 10 5.6
2020-Oct-30 08:55 053 2 gusting 10 5.6
2020-Oct-30 08:50 053 1 gusting 5 5.6
2020-Oct-30 08:45 053 1 gusting 6 5.6
2020-Oct-30 08:40 053 1 gusting 6 5.6
2020-Oct-30 08:35 053 0 gusting 4 5.6
2020-Oct-30 08:30 053 1 gusting 7 5.6
2020-Oct-30 08:25 053 1 gusting 7 5.6
2020-Oct-30 08:20 053 1 gusting 5 5.6
2020-Oct-30 08:15 053 1 gusting 5 5.6
2020-Oct-30 08:10 053 1 gusting 7 6.1
2020-Oct-30 08:05 053 0 gusting 7 6.1
2020-Oct-30 08:00 053 0 gusting 2 6.1
2020-Oct-30 07:55 053 0 gusting 2 6.1
2020-Oct-30 07:50 053 0 gusting 2 6.1
2020-Oct-30 07:45 053 1 gusting 6 6.1
2020-Oct-30 07:40 053 1 gusting 6 6.1
2020-Oct-30 07:35 053 0 gusting 3 6.1
2020-Oct-30 07:25 053 1 gusting 5 6.1
2020-Oct-30 07:20 053 1 gusting 3 6.1
2020-Oct-30 07:15 053 0 gusting 3 6.1
2020-Oct-30 07:10 053 0 gusting 3 6.1
2020-Oct-30 07:05 053 0 gusting 3 6.1
2020-Oct-30 07:00 053 0 gusting 2 6.1
2020-Oct-30 06:54 053 0 gusting 6 6.7
2020-Oct-30 06:49 053 1 gusting 6 6.7
2020-Oct-30 06:44 053 1 gusting 10 6.7
2020-Oct-30 06:34 053 0 gusting 2 6.7
2020-Oct-30 06:29 053 0 gusting 2 6.7
2020-Oct-30 06:24 053 0 gusting 2 6.7
2020-Oct-30 06:19 053 0 gusting 2 6.7
2020-Oct-30 06:14 053 0 gusting 2 6.7
2020-Oct-30 06:09 053 1 gusting 4 6.7
2020-Oct-30 06:04 053 1 gusting 6 6.7
2020-Oct-30 05:59 053 0 gusting 6 6.7
2020-Oct-30 05:54 053 0 gusting 3 6.7
2020-Oct-30 05:49 053 1 gusting 8 6.7
2020-Oct-30 05:44 053 1 gusting 8 6.7
2020-Oct-30 05:39 053 1 gusting 6 6.7
2020-Oct-30 05:34 053 1 gusting 6 6.7
2020-Oct-30 05:29 053 1 gusting 4 6.7
2020-Oct-30 05:24 053 1 gusting 5 6.7
2020-Oct-30 05:19 053 1 gusting 5 6.7
2020-Oct-30 05:14 053 1 gusting 5 6.7
2020-Oct-30 05:09 053 0 gusting 3 6.7
2020-Oct-30 05:04 053 0 gusting 4 6.7
2020-Oct-30 04:59 053 1 gusting 4 6.7
2020-Oct-30 04:54 053 1 gusting 4 6.7
2020-Oct-30 04:49 053 1 gusting 7 6.7
2020-Oct-30 04:44 053 1 gusting 7 6.7
2020-Oct-30 04:39 053 1 gusting 6 6.7
2020-Oct-30 04:34 053 1 gusting 5 6.7
2020-Oct-30 04:29 053 1 gusting 4 6.7
2020-Oct-30 04:24 053 1 gusting 4 6.7
2020-Oct-30 04:19 053 1 gusting 4 6.7
2020-Oct-30 04:14 053 1 gusting 7 6.7
2020-Oct-30 04:09 053 1 gusting 7 6.7
2020-Oct-30 04:04 053 1 gusting 5 6.7
2020-Oct-30 03:59 053 1 gusting 6 6.7
2020-Oct-30 03:54 053 1 gusting 6 6.7
2020-Oct-30 03:49 053 1 gusting 6 6.7
2020-Oct-30 03:44 053 2 gusting 6 6.7
2020-Oct-30 03:39 053 2 gusting 8 6.7
2020-Oct-30 03:34 053 1 gusting 8 6.7
2020-Oct-30 03:29 053 0 gusting 3 6.7
2020-Oct-30 03:24 053 1 gusting 4 6.7
2020-Oct-30 03:19 053 1 gusting 5 7.2
2020-Oct-30 03:14 053 1 gusting 5 7.2
2020-Oct-30 03:09 053 1 gusting 5 7.2
2020-Oct-30 03:04 053 1 gusting 5 7.2
2020-Oct-30 02:59 053 1 gusting 4 7.2
2020-Oct-30 02:54 053 0 gusting 4 7.2
2020-Oct-30 02:49 053 1 gusting 5 7.2
2020-Oct-30 02:44 053 1 gusting 5 7.2
2020-Oct-30 02:38 053 2 gusting 6 7.2
2020-Oct-30 02:33 053 2 gusting 6 7.2
2020-Oct-30 02:29 053 1 gusting 5 7.2
2020-Oct-30 02:23 053 1 gusting 4 7.2
2020-Oct-30 02:18 053 1 gusting 5 7.2
2020-Oct-30 02:13 053 1 gusting 5 7.2
2020-Oct-30 02:08 053 1 gusting 5 7.2
2020-Oct-30 02:03 053 1 gusting 4 7.2
2020-Oct-30 01:58 053 1 gusting 3 7.2
2020-Oct-30 01:53 053 1 gusting 5 7.2
2020-Oct-30 01:48 053 0 gusting 5 7.2
2020-Oct-30 01:43 053 1 gusting 5 7.2
2020-Oct-30 01:38 053 1 gusting 5 7.2
2020-Oct-30 01:33 053 1 gusting 4 7.2
2020-Oct-30 01:28 053 0 gusting 5 7.2
2020-Oct-30 01:23 053 1 gusting 5 7.2
2020-Oct-30 01:18 053 1 gusting 5 7.2
2020-Oct-30 01:13 053 1 gusting 5 7.2
2020-Oct-30 01:08 053 1 gusting 4 7.2
2020-Oct-30 01:03 053 0 gusting 4 7.2
2020-Oct-30 00:58 053 1 gusting 4 7.2
2020-Oct-30 00:53 053 1 gusting 3 7.2
2020-Oct-30 00:48 053 1 gusting 7 7.2
2020-Oct-30 00:43 053 1 gusting 7 7.2
2020-Oct-30 00:38 053 1 gusting 6 7.2
2020-Oct-30 00:33 053 2 gusting 6 7.2
2020-Oct-30 00:28 053 2 gusting 7 7.2
2020-Oct-30 00:23 053 1 gusting 7 7.2
2020-Oct-30 00:18 053 1 gusting 5 7.2
2020-Oct-30 00:13 053 2 gusting 5 7.2
2020-Oct-30 00:08 053 1 gusting 6 7.2
2020-Oct-30 00:03 053 1 gusting 6 7.8
2020-Oct-29 23:58 053 1 gusting 10 7.8
2020-Oct-29 23:53 053 2 gusting 10 7.8
2020-Oct-29 23:48 053 1 gusting 5 7.8
2020-Oct-29 23:43 053 1 gusting 5 7.8
2020-Oct-29 23:38 053 1 gusting 5 7.8
2020-Oct-29 23:33 053 2 gusting 7 7.8
2020-Oct-29 23:28 053 2 gusting 7 7.8
2020-Oct-29 23:23 053 1 gusting 4 7.8
2020-Oct-29 23:18 053 1 gusting 4 7.8
2020-Oct-29 23:13 053 1 gusting 5 7.8
2020-Oct-29 23:08 053 1 gusting 5 7.8
2020-Oct-29 23:03 053 1 gusting 5 7.8
2020-Oct-29 22:58 053 1 gusting 5 7.8
2020-Oct-29 22:53 053 1 gusting 5 7.8
2020-Oct-29 22:48 053 0 gusting 4 7.8
2020-Oct-29 22:43 053 1 gusting 7 7.8
2020-Oct-29 22:38 053 1 gusting 7 7.8
2020-Oct-29 22:33 052 2 gusting 7 7.8
2020-Oct-29 22:28 052 2 gusting 7 7.8
2020-Oct-29 22:23 052 2 gusting 13 7.8
2020-Oct-29 22:18 052 2 gusting 13 7.8
2020-Oct-29 22:13 051 1 gusting 6 7.8
2020-Oct-29 22:08 051 1 gusting 6 7.8
2020-Oct-29 22:03 051 0 gusting 5 7.8
2020-Oct-29 21:57 051 1 gusting 5 7.8
2020-Oct-29 21:53 051 1 gusting 3 7.8
2020-Oct-29 21:48 051 1 gusting 4 7.8
2020-Oct-29 21:43 051 0 gusting 4 7.8
2020-Oct-29 21:38 051 1 gusting 4 7.8
2020-Oct-29 21:33 051 1 gusting 4 7.8
2020-Oct-29 21:27 051 0 gusting 5 7.8
2020-Oct-29 21:23 051 0 gusting 5 7.8
2020-Oct-29 21:17 051 1 gusting 7 7.8
2020-Oct-29 21:12 051 1 gusting 7 7.8
2020-Oct-29 21:08 051 1 gusting 5 7.8
2020-Oct-29 21:03 051 0 gusting 3 7.8
2020-Oct-29 20:58 051 0 gusting 5 7.8
2020-Oct-29 20:52 051 0 gusting 5 8.3
2020-Oct-29 20:47 051 0 gusting 3 8.3
2020-Oct-29 20:42 051 0 gusting 2 8.3
2020-Oct-29 20:37 051 0 gusting 6 8.3
2020-Oct-29 20:32 051 1 gusting 7 8.3
2020-Oct-29 20:27 051 1 gusting 7 8.3
2020-Oct-29 20:22 051 1 gusting 4 8.3
2020-Oct-29 20:17 051 1 gusting 4 8.3
2020-Oct-29 20:12 051 0 gusting 2 8.3
2020-Oct-29 20:07 051 0 gusting 2 8.3
2020-Oct-29 20:02 051 0 gusting 2 8.3
2020-Oct-29 19:57 051 0 gusting 3 8.3
2020-Oct-29 19:52 051 0 gusting 3 8.3
2020-Oct-29 19:47 051 0 gusting 1 8.3
2020-Oct-29 19:42 051 0 gusting 1 8.3
2020-Oct-29 19:37 051 0 gusting 1 8.9
2020-Oct-29 19:32 051 0 gusting 4 8.9
2020-Oct-29 19:27 051 0 gusting 5 8.9
2020-Oct-29 19:22 051 0 gusting 5 8.9
2020-Oct-29 19:20 051 0 gusting 5 8.9
2020-Oct-29 19:12 051 0 gusting 5 8.9
2020-Oct-29 19:07 051 0 gusting 4 8.9
2020-Oct-29 19:02 051 1 gusting 5 8.9
2020-Oct-29 18:57 051 1 gusting 5 8.9
2020-Oct-29 18:52 051 0 gusting 2 8.9
2020-Oct-29 18:47 051 0 gusting 2 8.9
2020-Oct-29 18:42 051 0 gusting 2 8.9
2020-Oct-29 18:37 051 0 gusting 2 8.9
2020-Oct-29 18:32 051 0 gusting 3 8.9
2020-Oct-29 18:27 051 0 gusting 3 8.9
2020-Oct-29 18:22 051 0 gusting 3 8.9
2020-Oct-29 18:17 051 0 gusting 3 8.9
2020-Oct-29 18:12 051 0 gusting 2 8.9
2020-Oct-29 18:07 051 1 gusting 4 8.9
2020-Oct-29 18:02 051 0 gusting 4 8.9
2020-Oct-29 17:57 051 0 gusting 1 8.9
2020-Oct-29 17:52 051 8.9
2020-Oct-29 17:47 051 8.9
2020-Oct-29 17:42 051 8.9
2020-Oct-29 17:37 051 1 gusting 5 8.9
2020-Oct-29 17:32 051 0 gusting 5 8.9
2020-Oct-29 17:27 051 9.4
2020-Oct-29 17:22 051 8.9
2020-Oct-29 17:17 051 0 gusting 2 8.9
2020-Oct-29 17:12 051 0 gusting 2 8.9
2020-Oct-29 17:07 051 0 gusting 3 8.9
2020-Oct-29 17:02 051 0 gusting 3 8.9
2020-Oct-29 16:57 051 0 gusting 3 8.9
2020-Oct-29 16:52 051 8.9
2020-Oct-29 16:47 051 0 gusting 3 8.9
2020-Oct-29 16:42 051 0 gusting 3 8.9
2020-Oct-29 16:37 051 0 gusting 2 8.9
2020-Oct-29 16:32 051 0 gusting 2 8.9
2020-Oct-29 16:27 051 8.9
2020-Oct-29 16:22 051 8.9
2020-Oct-29 16:17 051 8.9
2020-Oct-29 16:12 051 8.9
2020-Oct-29 16:06 051 8.9
2020-Oct-29 16:01 051 8.9
2020-Oct-29 15:56 051 8.9
2020-Oct-29 15:51 051 8.9
2020-Oct-29 15:46 051 8.9
2020-Oct-29 15:41 051 0 gusting 1 8.9
2020-Oct-29 15:36 051 0 gusting 1 8.3
2020-Oct-29 15:31 051 8.9
2020-Oct-29 15:26 051 8.9
2020-Oct-29 15:21 051 8.9
2020-Oct-29 15:16 051 8.9
2020-Oct-29 15:11 051 8.9
2020-Oct-29 15:06 051 8.9
2020-Oct-29 15:01 051 8.9
2020-Oct-29 14:56 051 8.9
2020-Oct-29 14:51 051 8.9
2020-Oct-29 14:46 051 8.9
2020-Oct-29 14:41 051 0 gusting 1 8.9
2020-Oct-29 14:36 051 8.9
2020-Oct-29 14:31 051 8.9
2020-Oct-29 14:26 051 8.9
2020-Oct-29 14:21 051 8.9
2020-Oct-29 14:16 051 9.4
2020-Oct-29 14:11 051 8.9
2020-Oct-29 14:06 051 8.9
2020-Oct-29 14:01 051 9.4
2020-Oct-29 13:56 051 8.9
2020-Oct-29 13:51 051 8.9
2020-Oct-29 13:46 051 8.9
2020-Oct-29 13:41 051 8.9
2020-Oct-29 13:36 051 8.9
2020-Oct-29 13:31 051 8.9
2020-Oct-29 13:26 051 8.9
2020-Oct-29 13:21 051 8.9
2020-Oct-29 13:16 051 8.9
2020-Oct-29 13:11 051 8.9
2020-Oct-29 13:06 051 8.9
2020-Oct-29 13:01 051 8.9
2020-Oct-29 12:56 051 8.9
2020-Oct-29 12:51 051 8.9
2020-Oct-29 12:46 051 8.9
2020-Oct-29 12:41 051 8.9
2020-Oct-29 12:36 051 8.9
2020-Oct-29 12:31 051 8.9
2020-Oct-29 12:26 051 8.9
2020-Oct-29 12:21 051 8.9
2020-Oct-29 12:16 051 8.9
2020-Oct-29 12:11 051 8.9
2020-Oct-29 12:06 051 8.9
2020-Oct-29 12:01 051 8.9
2020-Oct-29 11:55 051 8.9
2020-Oct-29 11:50 051 8.9
2020-Oct-29 11:46 051 8.9
2020-Oct-29 11:40 051 8.9
2020-Oct-29 11:35 051 8.9
2020-Oct-29 11:30 051 8.9
2020-Oct-29 11:25 051 8.9
2020-Oct-29 11:20 051 8.9
2020-Oct-29 11:15 051 8.9
2020-Oct-29 11:10 051 8.9
2020-Oct-29 11:05 051 8.9
2020-Oct-29 11:00 051 8.9
2020-Oct-29 10:55 051 8.9
2020-Oct-29 10:50 051 8.9
2020-Oct-29 10:45 051 8.9
2020-Oct-29 10:40 051 8.9
2020-Oct-29 10:35 051 8.9
2020-Oct-29 10:31 051 8.9
2020-Oct-29 10:25 051 8.9
2020-Oct-29 10:21 051 8.9
2020-Oct-29 10:15 051 8.9
2020-Oct-29 10:10 051 8.9
2020-Oct-29 10:05 051 8.9
2020-Oct-29 10:00 051 8.9
2020-Oct-29 09:55 051 8.9
2020-Oct-29 09:50 051 8.9
2020-Oct-29 09:45 051 8.9
2020-Oct-29 09:40 051 0 gusting 0 8.9
2020-Oct-29 09:35 051 8.9
2020-Oct-29 09:25 051 8.9
2020-Oct-29 09:15 051 8.9
2020-Oct-29 09:10 051 8.9
2020-Oct-29 09:00 051 8.9
2020-Oct-29 08:55 051 8.9
2020-Oct-29 08:44 051 8.9
2020-Oct-29 08:40 051 8.3
2020-Oct-29 08:34 051 8.3
2020-Oct-29 08:29 051 0 gusting 1 8.9
2020-Oct-29 08:24 051 0 gusting 1 8.9
2020-Oct-29 08:19 051 0 gusting 0 8.3
2020-Oct-29 08:14 051 8.3
2020-Oct-29 08:09 051 8.3
2020-Oct-29 08:04 051 8.3
2020-Oct-29 07:59 051 8.3
2020-Oct-29 07:54 051 8.3
2020-Oct-29 07:49 051 8.3
2020-Oct-29 07:44 051 8.3
2020-Oct-29 07:39 051 8.3
2020-Oct-29 07:34 051 8.3
2020-Oct-29 07:29 051 8.3
2020-Oct-29 07:24 051 8.3
2020-Oct-29 07:19 051 8.3
2020-Oct-29 07:14 051 8.3
2020-Oct-29 07:09 051 8.3
2020-Oct-29 07:04 051 8.3
2020-Oct-29 06:59 051 8.3
2020-Oct-29 06:54 051 8.3
2020-Oct-29 06:49 051 0 gusting 0 8.3
2020-Oct-29 06:44 051 8.3
2020-Oct-29 06:39 051 8.3
2020-Oct-29 06:34 051 8.3
2020-Oct-29 06:29 051 8.3
2020-Oct-29 06:24 051 8.3
2020-Oct-29 06:19 051 8.9
2020-Oct-29 06:14 051 8.9
2020-Oct-29 06:09 051 8.9
2020-Oct-29 06:04 051 8.9
2020-Oct-29 05:59 051 8.9
2020-Oct-29 05:54 051 0 gusting 0 8.9
2020-Oct-29 05:49 051 8.9
2020-Oct-29 05:44 051 8.9
2020-Oct-29 05:39 051 8.9
2020-Oct-29 05:34 051 8.9
2020-Oct-29 05:29 051 8.9
2020-Oct-29 05:24 051 8.9
2020-Oct-29 05:19 051 8.9
2020-Oct-29 05:14 051 8.9
2020-Oct-29 05:09 051 8.9
2020-Oct-29 05:03 051 8.9
2020-Oct-29 04:58 051 8.9
2020-Oct-29 04:53 051 8.9
2020-Oct-29 04:48 051 8.9
2020-Oct-29 04:44 051 8.9
2020-Oct-29 04:38 051 8.9
2020-Oct-29 04:33 051 0 gusting 0 9.4
2020-Oct-29 04:28 051 9.4
2020-Oct-29 04:23 051 9.4
2020-Oct-29 04:18 051 9.4
2020-Oct-29 04:13 051 9.4
2020-Oct-29 04:08 051 9.4
2020-Oct-29 04:03 051 9.4
2020-Oct-29 03:58 051 9.4
2020-Oct-29 03:53 051 9.4
2020-Oct-29 03:48 051 9.4
2020-Oct-29 03:43 051 9.4
2020-Oct-29 03:38 051 9.4
2020-Oct-29 03:33 051 9.4
2020-Oct-29 03:28 051 9.4
2020-Oct-29 03:23 051 9.4
2020-Oct-29 03:18 051 9.4
2020-Oct-29 03:13 051 9.4
2020-Oct-29 03:08 051 9.4
2020-Oct-29 03:03 051 9.4
2020-Oct-29 02:58 051 9.4
2020-Oct-29 02:53 051 0 gusting 0 9.4
2020-Oct-29 02:48 051 0 gusting 0 9.4
2020-Oct-29 02:43 051 9.4
2020-Oct-29 02:38 051 0 gusting 1 9.4
2020-Oct-29 02:33 051 0 gusting 1 9.4
2020-Oct-29 02:28 051 9.4
2020-Oct-29 02:23 051 10.0
2020-Oct-29 02:18 051 10.0
2020-Oct-29 02:13 051 0 gusting 1 10.0
2020-Oct-29 02:08 051 10.0
2020-Oct-29 02:03 051 10.0
2020-Oct-29 01:58 051 10.0
2020-Oct-29 01:53 051 0 gusting 1 10.0
2020-Oct-29 01:48 051 0 gusting 1 10.6
2020-Oct-29 01:43 051 0 gusting 0 10.6
2020-Oct-29 01:38 051 10.0
2020-Oct-29 01:33 051 10.0
2020-Oct-29 01:28 051 0 gusting 1 10.0
2020-Oct-29 01:23 051 0 gusting 1 10.0
2020-Oct-29 01:18 051 0 gusting 1 10.0
2020-Oct-29 01:13 051 10.0
2020-Oct-29 01:08 051 10.6
2020-Oct-29 01:03 051 0 gusting 1 10.6
2020-Oct-29 00:58 051 0 gusting 1 10.6
2020-Oct-29 00:53 051 0 gusting 1 11.1
2020-Oct-29 00:48 051 0 gusting 3 11.1
2020-Oct-29 00:43 051 1 gusting 3 11.1
2020-Oct-29 00:38 051 1 gusting 2 11.1
2020-Oct-29 00:33 051 0 gusting 2 11.1
2020-Oct-29 00:28 051 0 gusting 2 11.1
2020-Oct-29 00:22 051 0 gusting 2 11.1
2020-Oct-29 00:17 051 1 gusting 2 11.1
2020-Oct-29 00:13 051 1 gusting 3 11.1
2020-Oct-29 00:07 051 1 gusting 3 11.1
2020-Oct-29 00:02 051 1 gusting 3 10.6
2020-Oct-28 23:57 051 0 gusting 3 10.6
2020-Oct-28 23:52 051 0 gusting 1 10.6
2020-Oct-28 23:47 051 0 gusting 1 10.6
2020-Oct-28 23:42 051 0 gusting 0 10.0
2020-Oct-28 23:37 051 0 gusting 0 10.0
2020-Oct-28 23:32 051 10.0
2020-Oct-28 23:27 051 0 gusting 0 10.0
2020-Oct-28 23:22 051 10.0
2020-Oct-28 23:17 051 10.0
2020-Oct-28 23:12 051 10.0
2020-Oct-28 23:07 051 9.4
2020-Oct-28 23:02 051 10.0
2020-Oct-28 22:57 051 10.0
2020-Oct-28 22:52 051 10.0
2020-Oct-28 22:47 051 10.0
2020-Oct-28 22:42 051 10.0
2020-Oct-28 22:37 051 10.0
2020-Oct-28 22:32 051 10.0
2020-Oct-28 22:27 051 10.0
2020-Oct-28 22:22 051 10.0
2020-Oct-28 22:17 051 10.6
2020-Oct-28 22:12 051 10.6
2020-Oct-28 22:07 051 10.6
2020-Oct-28 22:02 051 10.6
2020-Oct-28 21:57 051 11.1
2020-Oct-28 21:52 051 11.1
2020-Oct-28 21:47 051 11.1
2020-Oct-28 21:42 051 11.7
2020-Oct-28 21:37 051 11.7
2020-Oct-28 21:32 051 0 gusting 1 11.7
2020-Oct-28 21:27 051 0 gusting 1 11.7
2020-Oct-28 21:22 051 0 gusting 1 11.7
2020-Oct-28 21:17 051 0 gusting 1 11.7
2020-Oct-28 21:12 051 12.2
2020-Oct-28 21:07 051 0 gusting 1 11.7
2020-Oct-28 21:02 051 0 gusting 2 11.7